x

Buoy A01 - Mass. Bay/stellwagen (44029) Wave Buoy

2:04am - Sun 25th Sep 2016 All times are EDT. -4 hours from GMT.

  • Sig Wave height 3.0ft
  • Peak Period 3s
  • Wind
    20mph, 25mph gusts
  • Sea Temp 61°f
  • Air Temp 57°f
  • Sea Pressure 1018.1mb
  • Buoy A01 - Mass. Bay/stellwagen
  • Buoy A01 - Mass. Bay/stellwagen

More Historic Weather Station data

Upgrade to MSW Pro to gain access to the past 30 days of data for over 8000 Wavebouys and Weather Stations around the globe.

Join Pro

Comparision Forecast

View Surf forecast
   
Sun 09/25 2:04am 3ft 3s 20 25 mph 1018.1mb 61f 57f
1:04am 3ft 3s 20 22 mph 1017.6mb 61f 58f
12:04am 2.5ft 9s 18 22 mph 1017.8mb 61f 58f
Sat 09/24 11:04pm 2.5ft 8s 18 22 mph 1018mb 61f 59f
10:04pm  -   -  16 20 mph 1018.1mb 61f 60f
9:04pm 2ft 9s 13 16 mph 1018mb 62f 60f
8:04pm 2.5ft 10s 16 20 mph 1017.9mb 62f 62f
7:04pm 2.5ft 10s 16 18 mph 1017.5mb 63f 62f
6:04pm 2.5ft 5s 7
mph
1017.1mb 63f 62f
5:04pm 3ft 6s 4
mph
1016.9mb 64f 62f
4:04pm 3.5ft 5s 4
mph
1017.2mb 63f 61f
3:04pm 4ft 5s 4 7 mph 1017.6mb 63f 60f
2:04pm 3.5ft 4s 7 9 mph 1017.9mb 62f 59f
1:04pm 3.5ft 4s 9 11 mph 1018.7mb 61f 58f
12:04pm 3ft 7s 16 18 mph 1019.2mb 61f 58f
11:04am 3ft 10s 16 18 mph 1019.4mb 62f 58f
10:04am 2.5ft 9s 18 20 mph 1019.2mb 62f 59f
9:04am  -   -  13 16 mph 1018.8mb 62f 60f
8:04am 3ft 10s 13 16 mph 1019mb 63f 60f
7:04am 3ft 5s 13 16 mph 1018.7mb 63f 59f
6:04am 3ft 7s 13 18 mph 1018.3mb 63f 59f
5:04am  -   -  13 16 mph 1018mb 63f 60f
4:04am 4ft 6s 16 20 mph 1017.5mb 63f 60f
3:04am 4.5ft 6s 16 20 mph 1018.1mb 63f 60f
2:04am 4.5ft 6s 18 20 mph 1018.2mb 63f 61f
1:04am 4.5ft 6s 13 20 mph 1018.4mb 62f 60f
12:04am 6ft 6s 16 20 mph 1018.1mb 61f 60f
Fri 09/23 11:04pm 5.5ft 6s 18 20 mph 1017.6mb 60f 58f
10:04pm 6ft 6s 18 20 mph 1017.6mb 60f 58f
9:04pm 4.5ft 5s 22 27 mph 1016.8mb 60f 61f
8:04pm 2.5ft 4s 22 27 mph 1016.2mb 61f 62f
7:04pm 2ft 10s 22 27 mph 1015.6mb 63f 63f
6:04pm 2ft 3s 18 25 mph 1014.8mb 64f 65f
5:04pm 1.6ft 10s 13 18 mph 1013.9mb 65f 67f
4:04pm 2ft 11s 7 9 mph 1013.2mb 65f 68f
3:04pm 1.6ft 11s 2 4 mph 1013.2mb 65f 67f
2:04pm 1.6ft 11s 4
mph
1013.9mb 65f 67f
1:04pm 1.6ft 6s 4 7 mph 1014.2mb 65f 67f
12:04pm 2ft 8s 9
mph
1014.1mb 65f 67f
11:04am 2ft 8s 4 7 mph 1015.1mb 64f 66f
10:04am 2ft 3s 7
mph
1016mb 64f 65f
9:04am 2ft 9s 11 13 mph 1015.7mb 64f 66f
8:04am  -   -  9 11 mph 1015.9mb 63f 65f
7:04am 2ft 9s 11 13 mph 1015.9mb 63f 66f
6:04am 2ft 3s 11 13 mph 1015.8mb 64f 66f
5:04am 2.5ft 3s 11
mph
1015.9mb 64f 66f
4:04am 2.5ft 3s 11 13 mph 1016mb 65f 66f
3:04am 2ft 7s 11 13 mph 1016mb 65f 67f
2:04am 2.5ft 7s 13
mph
1016.8mb 65f 67f
1:04am 2.5ft 6s 11 13 mph 1017.5mb 65f 67f
12:04am 2.5ft 3s 9
mph
1018.1mb 65f 67f
Thu 09/22 11:04pm  -   -  11 13 mph 1018.4mb 65f 68f
10:04pm 2.5ft 3s 11 13 mph 1018.5mb 65f 68f
9:04pm 2ft 10s 13 16 mph 1018.4mb 65f 68f
8:04pm 1.6ft 9s 9 11 mph 1018.7mb 66f 68f
7:04pm 1.6ft 9s 9
mph
1018.6mb 67f 68f
6:04pm 1.6ft 11s 9
mph
1018.7mb 67f 69f
5:04pm 1.3ft 10s 7
mph
1019.2mb 66f 73f
4:04pm 1.3ft 7s 7
mph
1019mb 67f 71f
3:04pm 1.6ft 6s 2
mph
1019.5mb 67f 71f
2:04pm 1.6ft 10s 2
mph
1020.4mb 66f 68f
1:04pm 1.6ft 11s 2 4 mph 1021.2mb 65f 67f
12:04pm 1.6ft 11s 2 4 mph 1021.4mb 65f 66f
11:04am 1.3ft 10s 4
mph
1022mb 64f 65f
10:04am 1.3ft 8s 7
mph
1022.3mb 64f 66f
9:04am 1.3ft 11s 4
mph
1021.8mb 64f 65f
8:04am 1.6ft 9s 4 7 mph 1021.4mb 63f 64f
7:04am 1.6ft 11s 7
mph
1021.1mb 63f 64f
6:04am 1.3ft 8s 4
mph
1020.8mb 64f 64f
5:04am 1.3ft 10s 4
mph
1020.3mb 64f 65f
4:04am 1.3ft 8s 7
mph
1020.2mb 64f 65f
3:04am 1.3ft 11s 7 9 mph 1020mb 64f 66f
2:04am 1.3ft 11s 7 9 mph 1020.1mb 64f 66f
1:04am 1.3ft 6s 9
mph
1020.4mb 64f 67f
12:04am 1.3ft 7s 7
mph
1020.6mb 65f 67f
Wed 09/21 11:04pm 1.3ft 7s 7 9 mph 1020.8mb 65f 68f
10:04pm 1.3ft 8s 9
mph
1020.5mb 66f 68f
9:04pm 1.6ft 11s 7 9 mph 1020.7mb 67f 68f
8:04pm 1.6ft 8s 4 7 mph 1020.8mb 67f 68f
7:04pm 1.6ft 10s 4
mph
1020.4mb 67f 68f
6:04pm  -   -  4
mph
1020.2mb 67f 69f
5:04pm 1.3ft 8s 4
mph
1019.9mb 67f 69f
4:04pm 1.6ft 11s 2 4 mph 1019.3mb 67f 70f
3:04pm 1.6ft 7s 4 7 mph 1019.5mb 67f 70f
2:04pm 1.3ft 7s 2 4 mph 1019.8mb 66f 71f
1:04pm 1.6ft 8s 7 9 mph 1020.2mb 66f 68f
12:04pm 1.6ft 7s 7 9 mph 1020.5mb 65f 70f
11:04am 1.6ft 7s 7 11 mph 1020.6mb 65f 70f
10:04am 1.3ft 7s 7 9 mph 1020.8mb 65f 70f
9:04am 1.3ft 7s 7 9 mph 1020mb 65f 68f
8:04am 1.3ft 8s 9 11 mph 1019.7mb 65f 66f